Selinsgrove, PA

4:23 AM EST on February 25, 2017 (GMT -0500)
Penn Valley

Weather History for KSEG - March, 2014

Change the Weather History Date:

Sunday, March 9, 2014

  Actual Average (KIPT) Record (KIPT)
Temperature  
Mean Temperature 34 °F -  
Max Temperature 39 °F 41 °F 80 °F (2016)
Min Temperature 28 °F 23 °F 2 °F (1943)
Degree Days  
Heating Degree Days 32    
Moisture  
Dew Point 21 °F    
Average Humidity 58    
Maximum Humidity 79    
Minimum Humidity 35    
Precipitation  
Precipitation 0.00 in - - ()
Sea Level Pressure  
Sea Level Pressure 30.03 in    
Wind  
Wind Speed 7 mph (WNW)    
Max Wind Speed 13 mph    
Max Gust Speed 21 mph    
Visibility 9 miles    
Events      
Averages and records for this station are not official NWS values.
T = Trace of Precipitation, MM = Missing Value Source: NWS Daily Summary

Daily Weather History Graph

Daily Weather History Graph

Search for Another Location

Airport or City:

Trip Planner

Search our weather history database for the weather conditions in past years. The results will help you decide how hot, cold, wet, or windy it might be!

Date:

Astronomy

Mar. 09, 2014 Rise Set
Actual Time 7:28 AM EDT 7:07 PM EDT
Civil Twilight 7:01 AM EDT 7:34 PM EDT
Nautical Twilight 6:29 AM EDT 8:06 PM EDT
Astronomical Twilight 5:57 AM EDT 8:38 PM EDT
Moon 12:57 PM EDT (3/9) 3:54 AM EDT (3/9)
Length of Visible Light 12h 33m
Length of Day
11h 38m
First Quarter, 61% of the Moon is Illuminated
Mar 9
First Quarter
Mar 16
Full
Mar 23
Last Quarter
Mar 30
New
Apr 7
First Quarter

Hourly Weather History & Observations

Time (EDT) Temp. Windchill Dew Point Humidity Pressure Visibility Wind Dir Wind Speed Gust Speed Precip Events Conditions
12:33 AM 37.9 °F 31.5 °F 30.9 °F 76% 29.96 in 7.0 mi NW 9.2 mph - 0.00 in   Overcast
12:53 AM 37.0 °F 31.0 °F 30.9 °F 79% 29.96 in 7.0 mi NW 8.1 mph - 0.00 in   Overcast
1:08 AM 37.0 °F 30.4 °F 30.9 °F 79% 29.96 in 7.0 mi WNW 9.2 mph - N/A   Overcast
1:53 AM 37.0 °F 32.4 °F 30.9 °F 79% 29.96 in 8.0 mi WNW 5.8 mph - N/A   Overcast
3:53 AM 36.0 °F 33.3 °F 28.9 °F 76% 29.98 in 8.0 mi WNW 3.5 mph - N/A   Overcast
4:53 AM 35.1 °F 32.2 °F 28.9 °F 78% 29.99 in 8.0 mi North 3.5 mph - N/A   Overcast
5:53 AM 35.1 °F 30.1 °F 24.1 °F 64% 30.01 in 10.0 mi NW 5.8 mph - N/A   Mostly Cloudy
6:53 AM 33.1 °F 27.7 °F 19.9 °F 59% 30.04 in 10.0 mi WNW 5.8 mph - N/A   Clear
7:53 AM 32.0 °F 24.8 °F 19.0 °F 59% 30.06 in 10.0 mi WNW 8.1 mph - N/A   Clear
8:53 AM 32.0 °F 24.2 °F 19.0 °F 59% 30.10 in 10.0 mi WNW 9.2 mph - N/A   Clear
9:53 AM 32.0 °F 23.6 °F 18.0 °F 56% 30.12 in 10.0 mi WNW 10.4 mph 20.7 mph N/A   Partly Cloudy
10:53 AM 33.1 °F 24.4 °F 17.1 °F 52% 30.14 in 10.0 mi NW 11.5 mph - N/A   Clear
11:53 AM 35.1 °F 27.4 °F 16.0 °F 46% 30.13 in 10.0 mi NW 10.4 mph 18.4 mph N/A   Clear
12:53 PM 36.0 °F 27.5 °F 14.0 °F 41% 30.12 in 10.0 mi NNW 12.7 mph 18.4 mph N/A   Clear
1:53 PM 37.9 °F 31.5 °F 15.1 °F 39% 30.09 in 10.0 mi West 9.2 mph 17.3 mph N/A   Clear
2:53 PM 39.0 °F 34.0 °F 14.0 °F 36% 30.07 in 10.0 mi WNW 6.9 mph - N/A   Clear
3:53 PM 39.9 °F 33.9 °F 15.1 °F 36% 30.04 in 10.0 mi West 9.2 mph - N/A   Clear
4:53 PM 39.9 °F 35.8 °F 14.0 °F 35% 30.04 in 10.0 mi West 5.8 mph - N/A   Clear
5:53 PM 37.9 °F 31.5 °F 16.0 °F 41% 30.02 in 10.0 mi WNW 9.2 mph - N/A   Clear
6:53 PM 37.0 °F 32.4 °F 16.0 °F 42% 30.03 in 10.0 mi West 5.8 mph - N/A   Clear
7:53 PM 36.0 °F 33.3 °F 17.1 °F 46% 30.03 in 10.0 mi SW 3.5 mph - N/A   Clear
8:53 PM 35.1 °F 30.1 °F 17.1 °F 48% 30.04 in 10.0 mi SW 5.8 mph - N/A   Clear
9:53 PM 32.0 °F - 19.0 °F 59% 30.03 in 10.0 mi Calm Calm - N/A   Clear
10:53 PM 28.9 °F - 21.9 °F 75% 30.00 in 10.0 mi Calm Calm - N/A   Clear
11:53 PM 28.9 °F 25.2 °F 21.9 °F 75% 29.97 in 10.0 mi SSW 3.5 mph - N/A   Clear
12:53 AM 30.9 °F - 21.0 °F 67% 29.95 in 10.0 mi Calm Calm - N/A   Partly Cloudy